When you browse on this site, cookies collect data to enhance your experience and personalize the content and advertising you see.
Visit our Privacy Policy to learn more. By continuing to use the site, you agree to this use of cookies and data.
  • In Denmark
  • List of Countries
  • For 7 days
  • Water Temperature
  • Satellite Maps
  • Weather Map
  • Weather Widgets
  • user-avatar
    Login

    Hourly Weather Selfoss

    Today, 22 March, Friday

    Time Temperature Precipitation Wind Pressure Humidity
    00:00 -3°C° 0.6 mm 7 mps 739 mmHg 86%
    01:00 -4°C° 0.6 mm 8 mps 736 mmHg 86%
    02:00 -4°C° 0.6 mm 10 mps 733 mmHg 86%
    03:00 -4°C° 1.6 mm 11 mps 730 mmHg 87%
    04:00 -5°C° 1.6 mm 12 mps 728 mmHg 88%
    05:00 -6°C° 0 mm 13 mps 726 mmHg 88%
    06:00 -6°C° 1.2 mm 13 mps 726 mmHg 87%
    07:00 -5°C° 1.2 mm 13 mps 725 mmHg 86%
    08:00 -5°C° 1.2 mm 14 mps 725 mmHg 86%
    09:00 -4°C° 0.5 mm 13 mps 727 mmHg 85%
    10:00 -4°C° 0.5 mm 13 mps 728 mmHg 84%
    11:00 -3°C° 0 mm 10 mps 731 mmHg 82%
    12:00 -3°C° 0.2 mm 10 mps 732 mmHg 84%
    13:00 -2°C° 0.2 mm 11 mps 733 mmHg 85%
    14:00 -2°C° 0.2 mm 11 mps 734 mmHg 86%
    15:00 -3°C° 0.8 mm 12 mps 735 mmHg 86%
    16:00 -4°C° 0.8 mm 14 mps 736 mmHg 87%
    17:00 -5°C° 0.8 mm 15 mps 737 mmHg 88%
    18:00 -5°C° 0.7 mm 15 mps 739 mmHg 85%
    19:00 -7°C° 0.7 mm 15 mps 740 mmHg 82%
    20:00 -7°C° 0.7 mm 15 mps 742 mmHg 79%
    21:00 -6°C° 0.2 mm 14 mps 743 mmHg 77%
    22:00 -7°C° 0.2 mm 13 mps 745 mmHg 75%
    23:00 -7°C° 0.2 mm 12 mps 746 mmHg 73%

    Tomorrow, 23 March, Saturday

    Time Temperature Precipitation Wind Pressure Humidity
    00:00 -7°C° 0 mm 12 mps 748 mmHg 71%
    01:00 -8°C° 0 mm 11 mps 749 mmHg 69%
    02:00 -8°C° 0 mm 10 mps 750 mmHg 67%
    03:00 -7°C° 0 mm 7 mps 751 mmHg 69%
    04:00 -6°C° 0 mm 5 mps 751 mmHg 70%
    05:00 -5°C° 0 mm 3 mps 752 mmHg 71%
    06:00 -4°C° 0.4 mm 4 mps 751 mmHg 77%
    07:00 -4°C° 0.4 mm 4 mps 751 mmHg 83%
    08:00 -3°C° 0.4 mm 4 mps 751 mmHg 89%
    09:00 -2°C° 1 mm 5 mps 750 mmHg 89%
    10:00 -1°C° 1 mm 5 mps 750 mmHg 89%
    11:00 -1°C° 1 mm 6 mps 749 mmHg 89%
    12:00 0°C° 0.7 mm 7 mps 749 mmHg 88%
    13:00 0°C° 0.7 mm 8 mps 748 mmHg 86%
    14:00 0°C° 0.7 mm 9 mps 747 mmHg 84%
    15:00 0°C° 0.8 mm 9 mps 746 mmHg 84%
    16:00 0°C° 0.8 mm 8 mps 745 mmHg 84%
    17:00 0°C° 0.8 mm 8 mps 745 mmHg 83%
    18:00 -1°C° 0.5 mm 8 mps 744 mmHg 79%
    19:00 -1°C° 0.5 mm 9 mps 744 mmHg 76%
    20:00 -3°C° 0.5 mm 9 mps 744 mmHg 72%
    21:00 -3°C° 0.4 mm 9 mps 744 mmHg 76%
    22:00 -3°C° 0.4 mm 9 mps 745 mmHg 80%
    23:00 -3°C° 0.4 mm 10 mps 745 mmHg 84%

    Day after tomorrow, 24 March, Sunday

    Time Temperature Precipitation Wind Pressure Humidity
    00:00 -3°C° 0.3 mm 11 mps 746 mmHg 82%
    01:00 -3°C° 0.3 mm 12 mps 747 mmHg 81%
    02:00 -4°C° 0.3 mm 14 mps 748 mmHg 79%
    03:00 -4°C° 0.1 mm 13 mps 749 mmHg 80%
    04:00 -3°C° 0.1 mm 12 mps 750 mmHg 80%
    05:00 -5°C° 0.1 mm 12 mps 751 mmHg 81%
    06:00 -4°C° 0 mm 11 mps 753 mmHg 81%
    07:00 -6°C° 0 mm 11 mps 754 mmHg 81%
    08:00 -5°C° 0 mm 10 mps 756 mmHg 81%
    09:00 -5°C° 0 mm 9 mps 757 mmHg 80%
    10:00 -5°C° 0 mm 8 mps 759 mmHg 80%
    11:00 -4°C° 0 mm 7 mps 760 mmHg 79%
    12:00 -4°C° 0 mm 7 mps 761 mmHg 79%
    13:00 -3°C° 0 mm 6 mps 761 mmHg 78%
    14:00 -3°C° 0 mm 6 mps 762 mmHg 78%
    15:00 -3°C° 0 mm 4 mps 763 mmHg 78%
    16:00 -2°C° 0 mm 3 mps 763 mmHg 79%
    17:00 -3°C° 0 mm 2 mps 763 mmHg 79%
    18:00 -4°C° 0 mm 2 mps 764 mmHg 80%
    19:00 -5°C° 0 mm 2 mps 764 mmHg 81%
    20:00 -6°C° 0 mm 2 mps 764 mmHg 81%
    21:00 -6°C° 0 mm 3 mps 764 mmHg 82%
    22:00 -6°C° 0 mm 3 mps 763 mmHg 83%
    23:00 -7°C° 0 mm 4 mps 763 mmHg 83%

    25 March, Monday

    Time Temperature Precipitation Wind Pressure Humidity
    00:00 -6°C° 0.5 mm 5 mps 762 mmHg 86%
    01:00 -6°C° 0.5 mm 5 mps 761 mmHg 88%
    02:00 -5°C° 0.5 mm 6 mps 761 mmHg 91%
    03:00 -4°C° 1.3 mm 6 mps 760 mmHg 93%
    04:00 -2°C° 1.3 mm 7 mps 758 mmHg 96%
    05:00 0°C° 1.3 mm 7 mps 757 mmHg 99%
    06:00 0°C° 1.8 mm 8 mps 756 mmHg 99%
    07:00 +1°C° 1.8 mm 10 mps 755 mmHg 99%
    08:00 +2°C° 1.8 mm 11 mps 754 mmHg 99%
    09:00 +2°C° 3.3 mm 10 mps 753 mmHg 99%
    10:00 +2°C° 3.3 mm 9 mps 753 mmHg 99%
    11:00 +3°C° 3.3 mm 9 mps 752 mmHg 99%
    12:00 +2°C° 2.7 mm 8 mps 752 mmHg 99%
    13:00 +3°C° 2.7 mm 7 mps 751 mmHg 99%
    14:00 +3°C° 2.7 mm 6 mps 751 mmHg 99%
    15:00 +3°C° 0.1 mm 5 mps 751 mmHg 99%
    16:00 +4°C° 0.1 mm 4 mps 752 mmHg 99%
    17:00 +4°C° 0.1 mm 4 mps 752 mmHg 99%
    18:00 +4°C° 0.8 mm 4 mps 752 mmHg 99%
    19:00 +4°C° 0.8 mm 4 mps 752 mmHg 99%
    20:00 +2°C° 0.8 mm 5 mps 752 mmHg 99%
    21:00 +2°C° 0.1 mm 5 mps 752 mmHg 99%
    22:00 +3°C° 0.1 mm 4 mps 753 mmHg 98%
    23:00 +3°C° 0.1 mm 4 mps 753 mmHg 98%

    26 March, Tuesday

    Time Temperature Precipitation Wind Pressure Humidity
    00:00 +3°C° 0.1 mm 4 mps 753 mmHg 96%
    01:00 +2°C° 0.1 mm 5 mps 753 mmHg 94%
    02:00 +2°C° 0.1 mm 5 mps 753 mmHg 93%
    03:00 +2°C° 0.1 mm 5 mps 753 mmHg 92%
    04:00 +2°C° 0.1 mm 5 mps 754 mmHg 90%
    05:00 +1°C° 0.1 mm 5 mps 754 mmHg 89%
    06:00 +1°C° 0.1 mm 5 mps 754 mmHg 89%
    07:00 +2°C° 0.1 mm 6 mps 754 mmHg 88%
    08:00 +2°C° 0.1 mm 6 mps 754 mmHg 88%
    09:00 +2°C° 0.2 mm 7 mps 755 mmHg 87%
    10:00 +1°C° 0.2 mm 8 mps 755 mmHg 86%
    11:00 +1°C° 0.2 mm 9 mps 756 mmHg 85%
    12:00 +1°C° 0.1 mm 9 mps 757 mmHg 80%
    13:00 0°C° 0.1 mm 10 mps 758 mmHg 75%
    14:00 -2°C° 0.1 mm 10 mps 758 mmHg 71%
    15:00 -2°C° 0.1 mm 10 mps 759 mmHg 71%
    16:00 -2°C° 0.1 mm 10 mps 760 mmHg 72%
    17:00 -1°C° 0.1 mm 9 mps 760 mmHg 72%
    18:00 -1°C° 0.1 mm 9 mps 760 mmHg 73%
    19:00 -1°C° 0.1 mm 9 mps 760 mmHg 74%
    20:00 -1°C° 0.1 mm 9 mps 760 mmHg 75%
    21:00 -2°C° 0.2 mm 10 mps 759 mmHg 76%
    22:00 -1°C° 0.2 mm 11 mps 759 mmHg 76%
    23:00 -1°C° 0.2 mm 12 mps 758 mmHg 77%

    27 March, Wednesday

    Time Temperature Precipitation Wind Pressure Humidity
    00:00 -1°C° 0.4 mm 12 mps 757 mmHg 78%
    01:00 0°C° 0.4 mm 13 mps 756 mmHg 80%
    02:00 0°C° 0.4 mm 13 mps 755 mmHg 82%
    03:00 0°C° 1.4 mm 13 mps 754 mmHg 83%
    04:00 0°C° 1.4 mm 14 mps 753 mmHg 85%
    05:00 +1°C° 1.4 mm 14 mps 752 mmHg 87%
    06:00 +1°C° 1.5 mm 15 mps 751 mmHg 88%
    07:00 +1°C° 1.5 mm 15 mps 751 mmHg 89%
    08:00 +1°C° 1.5 mm 15 mps 750 mmHg 89%
    09:00 +2°C° 1.6 mm 15 mps 750 mmHg 90%
    10:00 +2°C° 1.6 mm 15 mps 750 mmHg 91%
    11:00 +2°C° 1.6 mm 15 mps 750 mmHg 91%
    12:00 +3°C° 1.7 mm 14 mps 750 mmHg 92%
    13:00 +3°C° 1.7 mm 14 mps 750 mmHg 92%
    14:00 +3°C° 1.7 mm 14 mps 750 mmHg 92%
    15:00 +3°C° 1.3 mm 13 mps 749 mmHg 92%
    16:00 +3°C° 1.3 mm 13 mps 749 mmHg 93%
    17:00 +4°C° 1.3 mm 12 mps 749 mmHg 93%
    18:00 +4°C° 2 mm 13 mps 748 mmHg 93%
    19:00 +4°C° 2 mm 13 mps 748 mmHg 93%
    20:00 +4°C° 2 mm 13 mps 748 mmHg 93%
    21:00 +4°C° 1.9 mm 13 mps 747 mmHg 93%
    22:00 +4°C° 1.9 mm 13 mps 747 mmHg 93%
    23:00 +4°C° 1.9 mm 13 mps 746 mmHg 92%
    Show more